Home   Weather   Bordeaux   Past weeks

Flag for France Past Weather in Bordeaux, Aquitaine, France — Yesterday and Last 2 Weeks

54 °F


Feels Like: 50 °F
Forecast: 57 / 68 °F
Wind: 12 mph from Southeast

Location: Bordeaux / Merignac

Current Time: Oct 23, 2016 at 3:29:20 AM

Latest Report: Oct 23, 2016 at 3:00 AM

Visibility: 10 mi

Pressure: 29.65 "Hg

Humidity: 88%

Dew Point: 50 °F

Location of BordeauxLocation

Past Weather in Bordeaux — Graph


Bordeaux Temperature Yesterday

Maximum temperature yesterday: 63 °F (at 3:30 PM)
Minimum temperature yesterday: 41 °F (at 8:00 AM)
Average temperature yesterday: 52 °F

High & Low Weather Summary for the Past Weeks

High72 °F (Oct 15, 2:30 PM)100% (Oct 13, 7:30 AM)30.36 "Hg (Oct 13, 7:30 AM)
Low37 °F (Oct 21, 7:30 AM)34% (Oct 10, 1:00 PM)29.56 "Hg (Oct 13, 7:30 AM)
Average55 °F73%30.02 "Hg
* Reported Oct 8 2:00 AM — Oct 23 2:00 AM, Bordeaux, Weather by CustomWeather, © 2016

Note: Actual official high and low records may vary slightly from our data, if they occured in-between our weather recording intervals... More about our weather records


Bordeaux Weather History for the Previous 24 Hours

Scroll right to see more
Time TempWeatherWind HumidityBarometerVisibility
2:00 AM
Sun, Oct 23
55 °FClear.13 mph82%29.65 "Hg10 mi
1:30 AM55 °FClear.13 mph82%29.65 "Hg10 mi
1:00 AM55 °FClear.13 mph77%29.68 "Hg10 mi
12:30 AM55 °FClear.14 mph77%29.68 "Hg10 mi
12:00 AM55 °FClear.12 mph77%29.68 "Hg10 mi
11:30 PM
Sat, Oct 22
55 °FClear.10 mph72%29.68 "Hg10 mi
11:00 PM57 °FClear.9 mph67%29.71 "Hg10 mi
10:30 PM55 °FClear.8 mph67%29.71 "Hg10 mi
10:00 PM55 °FClear.7 mph67%29.71 "Hg10 mi
9:30 PM57 °FClear.7 mph63%29.71 "Hg10 mi
9:00 PM57 °FClear.7 mph63%29.74 "Hg10 mi
8:30 PM59 °FClear.7 mph59%29.74 "Hg10 mi
8:00 PM59 °FClear.8 mph59%29.74 "Hg10 mi
7:30 PM61 °FClear.8 mph55%29.74 "Hg10 mi
7:00 PM61 °FPassing clouds.9 mph55%29.74 "HgN/A
6:30 PM63 °FSunny.10 mph52%29.74 "Hg10 mi
6:00 PM63 °FSunny.12 mph52%29.74 "Hg10 mi
5:30 PM63 °FPassing clouds.10 mph52%29.74 "HgN/A
5:00 PM63 °FSunny.12 mph52%29.74 "Hg10 mi
4:30 PM63 °FPassing clouds.10 mph52%29.77 "HgN/A
4:00 PM63 °FPassing clouds.9 mph52%29.77 "HgN/A
3:30 PM63 °FPassing clouds.12 mph49%29.77 "HgN/A
3:00 PM61 °FSunny.13 mph52%29.77 "Hg10 mi
2:30 PM61 °FPassing clouds.9 mph52%29.80 "HgN/A
2:00 PM61 °FSunny.10 mph52%29.80 "Hg10 mi
1:30 PM59 °FPassing clouds.10 mph59%29.83 "HgN/A
1:00 PM57 °FPassing clouds.9 mph59%29.83 "HgN/A
12:30 PM54 °FPassing clouds.7 mph63%29.83 "HgN/A
12:00 PM52 °FPassing clouds.8 mph67%29.86 "HgN/A
11:30 AM52 °FPassing clouds.7 mph67%29.86 "HgN/A
11:00 AM50 °FPassing clouds.8 mph71%29.86 "HgN/A
10:30 AM48 °FSunny.8 mph76%29.86 "Hg10 mi
10:00 AM46 °FPassing clouds.6 mph82%29.86 "HgN/A
9:30 AM45 °FSunny.5 mph81%29.89 "Hg10 mi
9:00 AM43 °FPassing clouds.5 mph87%29.89 "HgN/A
8:30 AM41 °FPassing clouds.5 mph93%29.89 "HgN/A
8:00 AM41 °FPassing clouds.5 mph93%29.89 "HgN/A
7:30 AM43 °FClear.5 mph87%29.89 "Hg10 mi
7:00 AM43 °FClear.5 mph87%29.89 "Hg10 mi
6:30 AM43 °FPassing clouds.5 mph87%29.89 "HgN/A
6:00 AM43 °FClear.3 mph87%29.89 "Hg10 mi
5:30 AM43 °FClear.3 mph93%29.92 "Hg10 mi
5:00 AM45 °FClear.5 mph87%29.92 "Hg10 mi
4:30 AM45 °FPassing clouds.6 mph87%29.92 "HgN/A
4:00 AM45 °FClear.6 mph87%29.92 "Hg10 mi
3:30 AM45 °FClear.3 mph87%29.95 "Hg10 mi
3:00 AM45 °FClear.3 mph87%29.95 "Hg10 mi
Weather by CustomWeather, © 2016

See weather overviewHow to use our weather pages